Location: Arboyeti
(42.1122°N, 44.6017°E)
Time: 00:44:18
(UTC+00:00)

ISS - Pass Details

Date: 01 October 2021
Orbit: 417 x 423 km, 51.6° (Epoch: 24 October)

Event Time Altitude Azimuth Distance (km) Brightness Sun altitude
Rises 15:08:30 0° 306° (NW) 2,364 1.1 -5.5°
Reaches altitude 10° 15:10:59 10° 324° (NW) 1,500 -0.4 -6.0°
Maximum altitude 15:13:34 20° 14° (NNE) 1,030 -1.9 -6.5°
Drops below altitude 10° 15:16:09 10° 64° (ENE) 1,500 -1.5 -6.9°
Enters shadow 15:16:41 - 70° (ENE) 1,669 -1.3 -7.0°
